• în România
  • Lista ţărilor
  • Pe 7 zile
  • Temperatura apei
  • Hartă satelitară
  • Meteo pe hartă
  • Widget-uri
  • user-avatar
    Intrare

    Meteo pe oră la Melbourne

    Astăzi, 26 Aprilie, Miercuri

    Timp Temperatura Precipitaţii Vânt Presiune Umiditate
    00:00 +13°C° 0,1 mm 3 m/s 752 mmHg 93%
    01:00 +12°C° 0,1 mm 3 m/s 752 mmHg 93%
    02:00 +12°C° 0,5 mm 3 m/s 752 mmHg 94%
    03:00 +12°C° 0,5 mm 4 m/s 752 mmHg 94%
    04:00 +11°C° 0 mm 6 m/s 752 mmHg 94%
    05:00 +10°C° 1,9 mm 5 m/s 753 mmHg 94%
    06:00 +9°C° 1,9 mm 5 m/s 753 mmHg 93%
    07:00 +9°C° 1,9 mm 5 m/s 754 mmHg 93%
    08:00 +9°C° 0,7 mm 5 m/s 755 mmHg 91%
    09:00 +9°C° 0,7 mm 5 m/s 756 mmHg 89%
    10:00 +10°C° 0 mm 6 m/s 757 mmHg 84%
    11:00 +10°C° 0,2 mm 6 m/s 757 mmHg 77%
    12:00 +11°C° 0,2 mm 6 m/s 757 mmHg 69%
    13:00 +11°C° 0,2 mm 6 m/s 758 mmHg 62%
    14:00 +11°C° 0,2 mm 6 m/s 758 mmHg 63%
    15:00 +10°C° 0,2 mm 5 m/s 759 mmHg 64%
    16:00 +10°C° 0 mm 6 m/s 760 mmHg 64%
    17:00 +9°C° 0,2 mm 5 m/s 760 mmHg 69%
    18:00 +9°C° 0,2 mm 5 m/s 761 mmHg 74%
    19:00 +8°C° 0,2 mm 4 m/s 762 mmHg 78%
    20:00 +8°C° 0,2 mm 4 m/s 762 mmHg 79%
    21:00 +8°C° 0,2 mm 4 m/s 762 mmHg 81%
    22:00 +8°C° 0,2 mm 4 m/s 762 mmHg 82%
    23:00 +8°C° 0,2 mm 4 m/s 763 mmHg 83%

    Mâine, 27 Aprilie, Joi

    Timp Temperatura Precipitaţii Vânt Presiune Umiditate
    00:00 +9°C° 0,2 mm 3 m/s 763 mmHg 84%
    01:00 +9°C° 0,2 mm 3 m/s 763 mmHg 85%
    02:00 +9°C° 0,1 mm 3 m/s 763 mmHg 85%
    03:00 +9°C° 0,1 mm 3 m/s 763 mmHg 85%
    04:00 +9°C° 0,1 mm 3 m/s 764 mmHg 85%
    05:00 +9°C° 0,1 mm 3 m/s 764 mmHg 85%
    06:00 +9°C° 0,1 mm 3 m/s 764 mmHg 85%
    07:00 +9°C° 0,1 mm 3 m/s 765 mmHg 86%
    08:00 +10°C° 0,1 mm 3 m/s 765 mmHg 84%
    09:00 +10°C° 0,1 mm 3 m/s 765 mmHg 82%
    10:00 +11°C° 0,1 mm 3 m/s 765 mmHg 81%
    11:00 +11°C° 0,1 mm 3 m/s 765 mmHg 79%
    12:00 +12°C° 0,1 mm 3 m/s 765 mmHg 77%
    13:00 +12°C° 0,1 mm 3 m/s 765 mmHg 75%
    14:00 +12°C° 0,1 mm 3 m/s 765 mmHg 74%
    15:00 +12°C° 0,1 mm 3 m/s 765 mmHg 73%
    16:00 +12°C° 0,1 mm 3 m/s 765 mmHg 72%
    17:00 +12°C° 0 mm 3 m/s 765 mmHg 77%
    18:00 +12°C° 0 mm 2 m/s 765 mmHg 81%
    19:00 +10°C° 0 mm 2 m/s 766 mmHg 86%
    20:00 +10°C° 0 mm 2 m/s 766 mmHg 88%
    21:00 +10°C° 0 mm 2 m/s 766 mmHg 91%
    22:00 +9°C° 0 mm 2 m/s 766 mmHg 93%
    23:00 +9°C° 0 mm 2 m/s 766 mmHg 94%

    Poimâine, 28 Aprilie, Vineri

    Timp Temperatura Precipitaţii Vânt Presiune Umiditate
    00:00 +9°C° 0 mm 2 m/s 766 mmHg 94%
    01:00 +9°C° 0 mm 2 m/s 766 mmHg 95%
    02:00 +9°C° 0 mm 2 m/s 766 mmHg 95%
    03:00 +9°C° 0 mm 2 m/s 765 mmHg 95%
    04:00 +9°C° 0 mm 2 m/s 765 mmHg 95%
    05:00 +10°C° 0 mm 2 m/s 765 mmHg 95%
    06:00 +10°C° 0 mm 2 m/s 766 mmHg 95%
    07:00 +10°C° 0 mm 2 m/s 766 mmHg 95%
    08:00 +13°C° 0 mm 2 m/s 766 mmHg 91%
    09:00 +14°C° 0 mm 2 m/s 766 mmHg 86%
    10:00 +16°C° 0 mm 2 m/s 766 mmHg 82%
    11:00 +16°C° 0,1 mm 2 m/s 766 mmHg 79%
    12:00 +17°C° 0,1 mm 3 m/s 766 mmHg 77%
    13:00 +18°C° 0,1 mm 3 m/s 766 mmHg 75%
    14:00 +18°C° 0,1 mm 3 m/s 766 mmHg 76%
    15:00 +17°C° 0,1 mm 3 m/s 765 mmHg 76%
    16:00 +17°C° 0,1 mm 3 m/s 765 mmHg 77%
    17:00 +16°C° 0 mm 3 m/s 765 mmHg 83%
    18:00 +15°C° 0 mm 2 m/s 766 mmHg 88%
    19:00 +13°C° 0 mm 2 m/s 766 mmHg 93%
    20:00 +13°C° 0 mm 2 m/s 766 mmHg 93%
    21:00 +13°C° 0 mm 2 m/s 766 mmHg 94%
    22:00 +13°C° 0 mm 2 m/s 766 mmHg 94%
    23:00 +13°C° 0 mm 2 m/s 766 mmHg 94%

    29 Aprilie, Sâmbătă

    Timp Temperatura Precipitaţii Vânt Presiune Umiditate
    00:00 +13°C° 0 mm 2 m/s 766 mmHg 94%
    01:00 +13°C° 0 mm 2 m/s 766 mmHg 95%
    02:00 +13°C° 0 mm 2 m/s 765 mmHg 95%
    03:00 +12°C° 0 mm 3 m/s 765 mmHg 95%
    04:00 +12°C° 0 mm 3 m/s 765 mmHg 95%
    05:00 +12°C° 0,1 mm 3 m/s 765 mmHg 95%
    06:00 +13°C° 0,1 mm 2 m/s 766 mmHg 95%
    07:00 +14°C° 0,1 mm 2 m/s 766 mmHg 96%
    08:00 +14°C° 0,1 mm 3 m/s 766 mmHg 91%
    09:00 +16°C° 0,1 mm 3 m/s 766 mmHg 87%
    10:00 +17°C° 0,1 mm 3 m/s 767 mmHg 83%
    11:00 +17°C° 0,2 mm 3 m/s 767 mmHg 82%
    12:00 +18°C° 0,2 mm 2 m/s 766 mmHg 80%
    13:00 +18°C° 0,2 mm 2 m/s 766 mmHg 79%
    14:00 +18°C° 0,1 mm 2 m/s 766 mmHg 80%
    15:00 +18°C° 0,1 mm 2 m/s 766 mmHg 81%
    16:00 +17°C° 0,1 mm 2 m/s 766 mmHg 82%
    17:00 +16°C° 0 mm 2 m/s 766 mmHg 87%
    18:00 +15°C° 0 mm 1 m/s 767 mmHg 91%
    19:00 +13°C° 0 mm 1 m/s 767 mmHg 95%
    20:00 +13°C° 0 mm 1 m/s 767 mmHg 94%
    21:00 +14°C° 0 mm 1 m/s 767 mmHg 94%
    22:00 +14°C° 0 mm 1 m/s 768 mmHg 93%
    23:00 +13°C° 0 mm 1 m/s 767 mmHg 94%

    30 Aprilie, Duminică

    Timp Temperatura Precipitaţii Vânt Presiune Umiditate
    00:00 +13°C° 0 mm 1 m/s 767 mmHg 95%
    01:00 +12°C° 0 mm 1 m/s 767 mmHg 96%
    02:00 +12°C° 0 mm 1 m/s 767 mmHg 96%
    03:00 +11°C° 0 mm 1 m/s 767 mmHg 96%
    04:00 +11°C° 0 mm 1 m/s 766 mmHg 97%
    05:00 +11°C° 0 mm 1 m/s 766 mmHg 96%
    06:00 +11°C° 0 mm 1 m/s 767 mmHg 96%
    07:00 +11°C° 0 mm 1 m/s 767 mmHg 96%
    08:00 +12°C° 0 mm 1 m/s 767 mmHg 90%
    09:00 +14°C° 0 mm 1 m/s 767 mmHg 83%
    10:00 +16°C° 0 mm 1 m/s 767 mmHg 77%
    11:00 +16°C° 0 mm 1 m/s 766 mmHg 72%
    12:00 +18°C° 0 mm 1 m/s 766 mmHg 67%
    13:00 +19°C° 0 mm 1 m/s 765 mmHg 63%
    14:00 +19°C° 0 mm 1 m/s 765 mmHg 63%
    15:00 +19°C° 0 mm 1 m/s 764 mmHg 64%
    16:00 +18°C° 0 mm 1 m/s 764 mmHg 64%
    17:00 +16°C° 0 mm 1 m/s 764 mmHg 69%
    18:00 +15°C° 0 mm 1 m/s 764 mmHg 73%
    19:00 +14°C° 0 mm 1 m/s 764 mmHg 78%
    20:00 +13°C° 0 mm 1 m/s 764 mmHg 80%
    21:00 +13°C° 0 mm 1 m/s 764 mmHg 82%
    22:00 +13°C° 0 mm 1 m/s 763 mmHg 83%
    23:00 +13°C° 0 mm 1 m/s 763 mmHg 85%

    1 Mai, Luni

    Timp Temperatura Precipitaţii Vânt Presiune Umiditate
    00:00 +13°C° 0 mm 2 m/s 763 mmHg 86%
    01:00 +12°C° 0 mm 2 m/s 762 mmHg 88%
    02:00 +12°C° 0 mm 2 m/s 762 mmHg 88%
    03:00 +12°C° 0 mm 2 m/s 761 mmHg 89%
    04:00 +12°C° 0 mm 2 m/s 761 mmHg 89%
    05:00 +11°C° 0 mm 3 m/s 761 mmHg 89%
    06:00 +12°C° 0 mm 3 m/s 761 mmHg 88%
    07:00 +12°C° 0 mm 3 m/s 761 mmHg 87%
    08:00 +13°C° 0 mm 3 m/s 761 mmHg 81%
    09:00 +15°C° 0 mm 4 m/s 760 mmHg 76%
    10:00 +17°C° 0 mm 4 m/s 760 mmHg 70%
    11:00 +18°C° 0 mm 4 m/s 759 mmHg 67%
    12:00 +19°C° 0 mm 4 m/s 759 mmHg 64%
    13:00 +19°C° 0 mm 4 m/s 758 mmHg 61%
    14:00 +19°C° 0 mm 4 m/s 757 mmHg 63%
    15:00 +19°C° 0 mm 4 m/s 757 mmHg 64%
    16:00 +19°C° 0 mm 4 m/s 756 mmHg 66%
    17:00 +18°C° 0 mm 4 m/s 757 mmHg 70%
    18:00 +17°C° 0 mm 4 m/s 757 mmHg 74%
    19:00 +15°C° 0 mm 4 m/s 757 mmHg 78%
    20:00 +15°C° 0 mm 4 m/s 756 mmHg 77%
    21:00 +15°C° 0 mm 4 m/s 756 mmHg 77%
    22:00 +15°C° 0 mm 4 m/s 756 mmHg 77%
    23:00 +14°C° 0,7 mm 4 m/s 756 mmHg 82%
    Arată mai mult